[[{"header":{"parameterUnit":"m.s-1","parameterCategory":1,"la1":30.2991,"la2":30.254,"lo1":-89.0895,"lo2":-89.0444,"dy":0.0017,"dx":0.0017,"nx":28,"ny":28,"refTime":"2025-04-25T03:00:00:Z","depth":0,"parameterNumber":2,"parameterNumberName":"U-component_of_WINDS"},"data":[0,0,0,0,0,0,0,0,0,0,0,0,0,0,0,0,0,0,0,0,0,0,0,0,0,0,0,0,0,0,0,0,0,0,0,0,0,0,0,0,0,0,0,0,0,0,0,0,0,0,0,0,0,0,0,0,0,0,-1.6109,-1.6109,0,-1.6129,-1.6129,-1.6129,-1.6128,-1.6127,-1.6127,-1.6127,-1.6146,-1.6147,-1.6148,0,0,0,0,0,0,0,0,0,0,0,0,0,-1.6067,-1.6068,-1.6109,-1.6109,-1.6109,-1.6129,-1.6129,-1.6129,-1.6128,-1.6127,-1.6127,-1.6127,-1.6146,-1.6147,-1.6148,0,0,0,0,0,0,0,0,0,0,0,0,0,-1.6086,-1.6068,-1.6108,-1.6111,-1.6111,-1.6129,-1.6129,-1.6129,-1.6128,-1.6127,-1.6127,-1.6126,-1.6146,-1.6147,-1.6148,-1.6165,0,0,-1.6152,-1.6152,0,0,0,0,0,0,0,0,-1.6085,-1.6088,-1.611,-1.6111,-1.6111,-1.6125,-1.6122,-1.6141,-1.6128,-1.6121,-1.6127,-1.6126,-1.614,-1.6141,-1.6146,-1.6166,-1.6167,-1.6152,-1.6153,-1.6153,-1.6154,0,0,0,0,0,0,0,-1.6084,-1.6087,-1.6117,-1.611,-1.6111,-1.611,-1.6112,-1.6125,-1.6133,-1.6122,-1.6122,-1.6124,-1.614,-1.6145,-1.6147,-1.6167,-1.6152,-1.6153,-1.6154,-1.6154,-1.62,-1.6201,0,0,0,0,0,0,-1.6082,-1.6086,-1.6116,-1.6117,-1.6097,-1.6111,-1.6114,-1.6121,-1.6133,-1.6134,-1.6125,-1.6124,-1.6143,-1.6145,-1.6147,-1.6167,-1.6153,-1.6154,-1.6155,-1.62,-1.6201,-1.6201,0,0,0,0,0,0,-1.6081,-1.6085,-1.6115,-1.6101,-1.6105,-1.6112,-1.6121,-1.6122,-1.6127,-1.6135,-1.6136,-1.6129,-1.6143,-1.6146,-1.616,-1.6168,-1.6155,-1.6156,-1.6199,-1.62,-1.6201,-1.6207,0,0,0,0,0,0,-1.608,-1.6084,-1.6091,-1.6102,-1.6106,-1.6128,-1.6121,-1.6122,-1.6129,-1.6129,-1.6139,-1.614,-1.6143,-1.6159,-1.6162,-1.6169,-1.6157,-1.6199,-1.62,-1.6201,-1.6206,-1.6208,-1.6209,0,0,0,0,0,-1.6079,-1.6092,-1.6091,-1.6095,-1.6114,-1.6129,-1.6131,-1.6134,-1.613,-1.6136,-1.6141,-1.614,-1.6167,-1.616,-1.6163,-1.6171,-1.6198,-1.6199,-1.6201,-1.6205,-1.6207,-1.6209,0,0,0,0,0,0,-1.6082,-1.6093,-1.6093,-1.611,-1.6118,-1.6128,-1.6137,-1.6136,-1.6146,-1.6145,-1.6148,-1.615,-1.6165,-1.617,-1.6163,-1.6188,-1.6182,-1.6184,-1.6184,-1.6186,-1.6188,-1.6186,-1.6158,0,0,0,0,0,-1.6085,-1.6096,-1.6105,-1.6119,-1.6123,-1.6129,-1.6136,-1.6137,-1.6146,-1.6149,-1.6155,-1.6163,-1.6174,-1.618,-1.619,-1.6207,-1.6209,-1.6214,-1.6215,-1.6217,-1.6218,-1.6227,-1.6229,-1.6205,-1.6205,-1.6205,0,0,-1.609,-1.6098,-1.6105,-1.612,-1.6127,-1.6137,-1.6132,-1.6144,-1.6152,-1.6151,-1.6165,-1.617,-1.6179,-1.6195,-1.6202,-1.6199,-1.6225,-1.6218,-1.6219,-1.622,-1.6228,-1.623,-1.6232,-1.6206,-1.6205,-1.6205,0,0,-1.6106,-1.6113,-1.6126,-1.6132,-1.6143,-1.6147,-1.615,-1.616,-1.6163,-1.6177,-1.6177,-1.6186,-1.6204,-1.621,-1.6216,-1.6234,-1.6232,-1.6237,-1.6245,-1.6253,-1.6255,-1.6257,-1.6262,-1.6265,-1.6238,-1.6238,-1.6238,0,-1.6112,-1.6128,-1.6132,-1.6144,-1.615,-1.615,-1.6163,-1.6169,-1.6182,-1.6186,-1.6183,-1.6205,-1.6211,-1.6228,-1.6232,-1.6237,-1.624,-1.6235,-1.6254,-1.6256,-1.6258,-1.6263,-1.6266,-1.6239,-1.6239,-1.6239,-1.6239,0,-1.6135,-1.6146,-1.6155,-1.6167,-1.6175,-1.6187,-1.6192,-1.6199,-1.62,-1.6204,-1.6219,-1.6226,-1.6237,-1.6242,-1.6243,-1.6259,-1.6256,-1.6254,-1.6248,-1.626,-1.6266,-1.6268,-1.6239,-1.6239,-1.6239,-1.6239,0,0,-1.6153,-1.6167,-1.617,-1.6176,-1.6187,-1.6196,-1.6207,-1.6219,-1.6224,-1.6233,-1.6243,-1.6258,-1.6255,-1.6262,-1.6263,-1.6271,-1.6284,-1.6267,-1.6268,-1.627,-1.6301,-1.6303,-1.6305,-1.6284,-1.6284,-1.6284,-1.63,0,-1.6169,-1.619,-1.6194,-1.6212,-1.6222,-1.6223,-1.6233,-1.6241,-1.6245,-1.6254,-1.6258,-1.6268,-1.6265,-1.6269,-1.6276,-1.6281,-1.629,-1.628,-1.6292,-1.6292,-1.6289,-1.6308,-1.631,-1.6324,-1.6302,-1.6303,-1.6303,0,-1.6191,-1.6201,-1.622,-1.623,-1.6234,-1.6243,-1.6253,-1.6262,-1.6271,-1.6273,-1.628,-1.6281,-1.6293,-1.6287,-1.6303,-1.6296,-1.6301,-1.6304,-1.6304,-1.6305,-1.6298,-1.6309,-1.6329,-1.6331,-1.6306,-1.6306,-1.6306,0,-1.6202,-1.622,-1.6233,-1.6238,-1.625,-1.6256,-1.6261,-1.6269,-1.6275,-1.6284,-1.6288,-1.6299,-1.6304,-1.6312,-1.6315,-1.631,-1.6331,-1.6325,-1.6332,-1.6332,-1.6336,-1.6336,-1.6357,-1.6341,-1.6341,-1.6341,-1.634,0,-1.622,-1.6231,-1.6238,-1.6247,-1.6259,-1.6263,-1.6276,-1.6281,-1.6288,-1.6297,-1.6298,-1.6306,-1.631,-1.6319,-1.6322,-1.6335,-1.6337,-1.6339,-1.634,-1.6339,-1.6338,-1.6342,-1.6341,-1.6341,-1.6341,-1.6341,-1.6341,0,-1.6234,-1.6239,-1.6254,-1.6263,-1.6266,-1.6275,-1.6283,-1.6291,-1.6295,-1.6306,-1.6309,-1.6316,-1.6326,-1.633,-1.6343,-1.6345,-1.6359,-1.6359,-1.6356,-1.6356,-1.6364,-1.6363,-1.6387,-1.6391,-1.6372,-1.6372,-1.6373,0,-1.6244,-1.6253,-1.6264,-1.627,-1.6275,-1.6285,-1.6292,-1.6296,-1.6302,-1.6313,-1.6319,-1.633,-1.6338,-1.6355,-1.6361,-1.637,-1.637,-1.6378,-1.6372,-1.637,-1.637,-1.6369,-1.637,-1.6379,-1.6379,-1.638,-1.638,0,-1.6263,-1.6265,-1.6274,-1.6284,-1.6292,-1.63,-1.6308,-1.6313,-1.6319,-1.6326,-1.6337,-1.6343,-1.6357,-1.6367,-1.6377,-1.6382,-1.6381,-1.6382,-1.6384,-1.6383,-1.6381,-1.6382,-1.6359,-1.6381,-1.6381,-1.6381,-1.6381,-1.6381,-1.6275,-1.6283,-1.6291,-1.6302,-1.6308,-1.6316,-1.6323,-1.6329,-1.6338,-1.6349,-1.635,-1.6362,-1.637,-1.6383,-1.6388,-1.6397,-1.6395,-1.6398,-1.6399,-1.64,-1.64,-1.638,-1.6399,-1.6399,-1.6399,-1.6399,-1.6399,0,-1.6293,-1.6299,-1.6308,-1.6319,-1.6327,-1.6327,-1.6335,-1.6342,-1.6352,-1.636,-1.6368,-1.638,-1.639,-1.6397,-1.6406,-1.6412,-1.6412,-1.6415,-1.6414,-1.6415,-1.6402,-1.6398,-1.6414,-1.6414,-1.6414,-1.6414,-1.6414,-1.6414,-1.6303,-1.6316,-1.6319,-1.6335,-1.6341,-1.6352,-1.6357,-1.6364,-1.637,-1.6383,-1.6391,-1.6396,-1.6402,-1.6413,-1.6422,-1.6423,-1.6427,-1.6429,-1.643,-1.6418,-1.6416,-1.6414,-1.6411,-1.643,-1.643,-1.6443,-1.6443,-1.6443]},{"header":{"parameterUnit":"m.s-1","parameterCategory":1,"la1":30.2991,"la2":30.254,"lo1":-89.0895,"lo2":-89.0444,"dy":0.0017,"dx":0.0017,"nx":28,"ny":28,"refTime":"2025-04-25T03:00:00:Z","depth":0,"parameterNumber":3,"parameterNumberName":"V-component_of_WINDS"},"data":[0,0,0,0,0,0,0,0,0,0,0,0,0,0,0,0,0,0,0,0,0,0,0,0,0,0,0,0,0,0,0,0,0,0,0,0,0,0,0,0,0,0,0,0,0,0,0,0,0,0,0,0,0,0,0,0,0,0,2.8669,2.8669,0,2.8712,2.8712,2.8713,2.8677,2.8675,2.8674,2.8672,2.8714,2.8717,2.8719,0,0,0,0,0,0,0,0,0,0,0,0,0,2.8554,2.8557,2.8669,2.8669,2.867,2.8712,2.8712,2.8713,2.8677,2.8675,2.8673,2.8672,2.8713,2.8716,2.8719,0,0,0,0,0,0,0,0,0,0,0,0,0,2.8601,2.8558,2.8669,2.8657,2.8656,2.8712,2.8712,2.8713,2.8677,2.8675,2.8673,2.8671,2.8712,2.8716,2.872,2.8788,0,0,2.8731,2.8733,0,0,0,0,0,0,0,0,2.8599,2.8606,2.8658,2.8658,2.8657,2.8687,2.8687,2.8738,2.8678,2.8669,2.8672,2.867,2.8707,2.8711,2.8724,2.879,2.8792,2.8732,2.8734,2.8735,2.8736,0,0,0,0,0,0,0,2.8596,2.8604,2.8686,2.8659,2.8658,2.8649,2.8653,2.8697,2.87,2.867,2.8667,2.8673,2.8706,2.872,2.8724,2.8792,2.8731,2.8735,2.8737,2.8739,2.8918,2.892,0,0,0,0,0,0,2.8594,2.8601,2.8684,2.8687,2.8622,2.8653,2.8658,2.8679,2.8699,2.87,2.8675,2.8671,2.8715,2.872,2.8726,2.8808,2.8735,2.8739,2.8741,2.8915,2.8918,2.8921,0,0,0,0,0,0,2.8591,2.8601,2.8682,2.8643,2.8653,2.8658,2.8682,2.8681,2.8696,2.8703,2.8704,2.8689,2.8713,2.872,2.8773,2.8808,2.8741,2.8744,2.8912,2.8916,2.892,2.8971,0,0,0,0,0,0,2.8588,2.8601,2.8627,2.8644,2.8655,2.873,2.8684,2.8684,2.8702,2.8698,2.8716,2.8717,2.8712,2.8768,2.8777,2.8812,2.8747,2.8909,2.8914,2.8918,2.8966,2.8976,2.8985,0,0,0,0,0,2.8584,2.8639,2.8628,2.8639,2.8688,2.8732,2.8738,2.8731,2.8705,2.8732,2.8737,2.8717,2.8803,2.8773,2.8783,2.8821,2.8907,2.8913,2.8918,2.8962,2.8974,2.8985,0,0,0,0,0,0,2.8624,2.8641,2.8629,2.8691,2.8711,2.8726,2.8758,2.8744,2.877,2.8765,2.8755,2.876,2.8815,2.8823,2.879,2.8888,2.8851,2.8859,2.8881,2.8893,2.8902,2.8898,2.875,0,0,0,0,0,2.8641,2.8675,2.8688,2.8741,2.8752,2.8754,2.8772,2.8766,2.8785,2.8793,2.8801,2.882,2.8852,2.8873,2.8902,2.8968,2.8971,2.8998,2.9007,2.9015,2.9022,2.9058,2.907,2.8939,2.8939,2.8939,0,0,2.8674,2.8688,2.871,2.875,2.8764,2.88,2.876,2.88,2.8826,2.8798,2.8849,2.8856,2.8877,2.8937,2.8963,2.8945,2.9059,2.9022,2.9028,2.9031,2.9065,2.9078,2.9089,2.8943,2.8942,2.8942,0,0,2.8754,2.8767,2.8814,2.8829,2.8852,2.8853,2.8864,2.8882,2.8886,2.8937,2.8917,2.8948,2.9003,2.9018,2.9033,2.9121,2.9104,2.9131,2.9179,2.9214,2.9225,2.9234,2.9266,2.9277,2.9138,2.9138,2.9138,0,2.8792,2.8846,2.8839,2.8881,2.8899,2.8877,2.8924,2.8939,2.897,2.8983,2.8962,2.9031,2.9043,2.9106,2.9128,2.9141,2.9153,2.9129,2.9224,2.9233,2.9241,2.9272,2.9283,2.9141,2.9141,2.914,2.914,0,2.8893,2.8931,2.8965,2.8997,2.9019,2.9063,2.9063,2.9087,2.9079,2.9082,2.9135,2.9149,2.9181,2.9196,2.9188,2.9259,2.9247,2.9225,2.9187,2.9257,2.9285,2.9297,2.9146,2.9145,2.9144,2.9143,0,0,2.8997,2.9026,2.9039,2.9054,2.9078,2.9106,2.915,2.9183,2.9203,2.9225,2.9262,2.9309,2.929,2.9307,2.93,2.9332,2.9401,2.9306,2.9306,2.9324,2.9481,2.9498,2.9511,2.939,2.9392,2.9394,2.948,0,2.9078,2.9155,2.9151,2.9222,2.9257,2.9238,2.9276,2.9294,2.9299,2.9329,2.9334,2.9368,2.934,2.935,2.938,2.9386,2.9433,2.938,2.9424,2.9425,2.9419,2.9526,2.9543,2.9623,2.9491,2.9492,2.9494,0,2.9183,2.921,2.9286,2.9306,2.932,2.9354,2.9385,2.9414,2.9435,2.9437,2.9457,2.9446,2.949,2.9452,2.9512,2.9477,2.9494,2.95,2.9503,2.9507,2.9464,2.9533,2.9648,2.966,2.9511,2.951,2.9508,0,2.9252,2.9308,2.936,2.9374,2.9398,2.9423,2.9434,2.9453,2.9473,2.95,2.9513,2.9544,2.9561,2.9585,2.9583,2.9555,2.9645,2.9606,2.9647,2.9647,2.9667,2.9665,2.9787,2.9678,2.9678,2.9678,2.9677,0,2.9343,2.939,2.9392,2.9425,2.9477,2.9472,2.9524,2.9532,2.955,2.9584,2.9568,2.96,2.9595,2.9627,2.9625,2.9676,2.9684,2.9686,2.9685,2.9688,2.9687,2.9699,2.9693,2.9681,2.968,2.9679,2.9679,0,2.9429,2.9433,2.9489,2.9508,2.9514,2.9552,2.9568,2.9599,2.9603,2.9646,2.9656,2.9662,2.9699,2.97,2.9741,2.974,2.9803,2.9795,2.9796,2.9795,2.9836,2.9832,2.9969,2.9987,2.9866,2.9867,2.9868,0,2.9487,2.9523,2.9547,2.9569,2.9582,2.9617,2.9639,2.9636,2.9658,2.9686,2.9714,2.9749,2.9778,2.9838,2.9846,2.9878,2.9871,2.9917,2.9876,2.9878,2.9873,2.9871,2.9874,2.9925,2.9926,2.9928,2.9928,0,2.959,2.959,2.9622,2.9655,2.9681,2.9706,2.973,2.9749,2.9748,2.9774,2.9813,2.9835,2.9879,2.9915,2.9946,2.9957,2.9943,2.9942,2.9953,2.9956,2.9955,2.9957,2.9818,2.9938,2.9937,2.9937,2.9936,2.9936,2.9664,2.9695,2.9718,2.9754,2.9772,2.9794,2.9825,2.9833,2.9865,2.9901,2.9897,2.994,2.9961,3.0003,3.0017,3.005,3.0034,3.005,3.0054,3.0058,3.0063,2.995,3.0055,3.0055,3.0055,3.0055,3.0054,0,2.9766,2.978,2.9813,2.9847,2.9876,2.9862,2.9887,2.9912,2.995,2.9972,3.0001,3.0045,3.008,3.0092,3.0126,3.015,3.0145,3.0159,3.0157,3.016,3.0075,3.0062,3.0163,3.0163,3.0163,3.0163,3.0163,3.0163,2.9822,2.9876,2.9879,2.9941,2.9954,2.9997,3.0013,3.0034,3.0051,3.0102,3.0131,3.0139,3.0157,3.0192,3.0224,3.0226,3.0239,3.0257,3.0257,3.0177,3.0166,3.0156,3.0143,3.026,3.026,3.0339,3.034,3.034]}]]